Theta_e
272 273 273 273 272 272 270 270 265 268 268 263 267 267 268 270 272 272 273 274 273 274 274 275 276 278 279 280 281 282 282 282 284 288 290 291 297 301 301 303 306 308 307 306
269 273 272 271 272 272 272 272 271 270 264 264 268 268 270 271 271 272 272 272 273 274 274 275 275 276 278 279 280 281 281 281 284 287 288 290 292 298 299 301 305 306 305 304
266 270 271 267 265 270 271 270 268 264 262 265 268 270 270 270 271 271 271 272 272 273 274 275 275 277 277 278 279 280 280 281 283 286 286 288 290 294 297 299 304 304 303 302
265 268 258 266 272 268 265 265 265 267 267 267 267 270 270 272 270 270 272 272 273 274 274 275 276 277 278 279 279 279 279 280 282 283 284 287 289 292 296 298 303 302 301 301
263 262 266 267 268 265 262 262 264 263 266 268 270 270 265 273 272 272 272 273 274 274 275 275 276 277 278 278 278 278 279 280 281 282 283 285 287 292 296 297 298 300 301 300
265 262 261 263 272 273 263 258 267 267 267 267 268 262 266 271 272 272 273 274 273 274 275 275 275 277 277 277 277 278 279 279 281 282 283 285 287 292 295 295 296 297 297 298
265 265 264 269 271 273 259 258 268 268 268 268 266 267 270 272 272 273 273 273 274 274 274 274 276 276 276 276 276 278 280 280 280 282 283 285 288 294 294 293 293 293 294 295
261 258 258 270 269 264 263 268 268 268 269 268 269 270 270 271 272 272 272 273 274 274 274 275 276 276 276 276 278 279 279 280 280 281 284 287 292 293 292 292 291 290 290 290
267 264 269 269 268 269 269 267 268 268 269 269 269 269 270 270 271 271 272 273 274 274 275 276 277 277 276 277 278 278 279 279 280 282 284 289 291 289 289 289 287 287 288 288
268 266 266 268 269 269 269 268 269 270 269 269 269 270 270 270 271 271 272 272 274 275 274 275 276 278 277 278 279 278 278 278 280 282 285 288 288 289 287 287 287 287 286 286
265 265 268 269 268 268 269 269 270 270 270 270 270 270 270 270 270 271 272 274 275 274 275 276 277 278 278 278 279 277 278 278 280 282 286 286 287 287 288 289 289 287 287 288
262 265 264 265 267 269 268 269 269 269 269 270 270 269 270 270 271 272 274 274 274 275 276 276 277 279 278 278 279 278 277 279 280 283 285 285 285 286 291 291 291 291 291 290
264 266 267 267 269 269 268 269 269 269 269 269 269 270 270 270 271 275 273 274 274 275 276 276 277 278 280 280 279 278 278 279 280 285 284 284 284 283 282 286 289 288 289 289
266 266 266 267 267 268 269 269 269 269 269 269 269 270 270 270 271 271 272 273 275 276 276 276 277 277 280 281 280 279 280 284 282 281 281 281 280 280 279 279 278 280 286 286
266 266 265 268 268 268 267 267 266 266 267 267 269 269 269 269 269 271 273 274 274 276 275 275 276 277 279 280 280 282 282 281 281 280 280 280 278 278 277 277 276 276 276 280
266 266 267 266 266 265 265 265 264 265 266 267 267 268 268 269 270 271 272 273 273 274 275 275 276 277 279 279 279 279 282 283 281 279 279 278 278 277 277 277 276 275 275 275
261 263 263 263 262 260 259 262 263 264 265 265 267 269 269 269 270 270 271 272 274 275 276 276 276 277 279 278 278 278 278 279 281 278 277 277 277 276 276 276 276 276 276 278
257 258 258 261 261 261 261 260 261 262 264 266 268 269 268 268 268 269 270 271 273 275 276 277 278 277 278 278 277 277 277 277 277 276 276 276 275 276 275 275 274 274 275 277
258 260 260 259 261 261 261 260 260 263 266 267 268 267 268 268 269 270 270 270 271 272 275 278 279 278 277 279 278 277 277 276 275 276 276 277 275 275 274 274 274 274 274 274
259 259 258 259 261 257 259 260 262 264 266 267 267 267 266 267 269 269 270 269 271 274 276 278 278 277 277 278 279 276 276 275 275 276 275 274 274 274 275 275 274 274 273 273
258 258 258 258 257 259 258 259 261 262 264 266 267 267 267 268 269 270 268 267 271 276 276 278 277 277 277 277 276 275 275 275 275 274 274 274 274 274 274 274 274 274 273 273
257 259 261 262 262 264 265 265 264 265 266 266 268 268 268 268 268 269 270 269 272 277 274 275 277 278 277 276 275 274 274 274 274 274 274 274 274 273 273 273 273 273 273 272
265 265 265 265 265 264 265 266 266 267 267 268 268 269 268 268 269 268 266 270 273 275 272 275 278 278 276 272 272 273 273 273 273 273 273 274 274 274 274 274 274 274 274 274
265 265 264 265 264 264 263 265 265 267 266 268 269 270 268 267 268 270 271 272 274 274 271 275 276 276 275 271 271 271 272 272 272 272 272 275 274 274 274 274 274 275 274 274
264 264 262 263 263 264 264 265 265 265 266 266 267 267 268 269 268 269 269 270 272 271 269 272 275 273 270 270 269 269 270 272 273 270 270 270 271 272 273 274 275 272 271 270
263 263 264 266 265 265 265 266 266 265 266 265 266 267 268 267 267 268 268 270 268 270 268 268 270 270 268 269 268 268 269 269 270 270 269 269 269 269 270 270 270 271 271 272
262 267 265 264 265 265 265 267 265 264 266 264 265 268 267 267 267 267 269 266 267 267 267 267 267 269 268 267 267 267 267 267 270 269 267 267 267 267 268 269 270 271 272 273
Wind_Speed
5 5 3 6 9 11 11 7 6 6 5 2 4 7 7 8 14 17 14 13 14 16 15 14 15 17 16 15 14 15 16 18 19 19 17 18 16 12 10 12 11 10 8 6
3 6 6 7 7 7 8 3 2 4 6 4 5 5 10 12 16 14 14 16 18 19 18 17 16 18 19 18 17 16 15 19 18 17 17 16 16 13 11 12 12 9 8 7
4 2 6 8 2 2 2 4 1 3 4 4 10 13 12 16 17 11 16 19 21 20 19 17 18 18 18 19 17 16 15 18 17 15 17 16 15 14 12 12 10 7 5 5
4 3 2 2 3 5 3 3 5 5 8 7 9 12 12 15 8 17 21 22 20 18 18 19 19 18 19 18 18 16 17 17 16 16 18 17 15 14 12 11 9 5 5 5
2 3 1 1 4 4 4 5 2 3 7 10 13 15 7 6 15 19 20 19 18 17 20 19 18 18 17 17 17 16 17 16 16 17 19 16 16 15 10 9 5 3 3 6
1 1 5 1 3 6 4 4 3 7 10 13 14 11 10 17 20 20 20 18 19 20 18 19 18 16 17 16 16 16 16 16 16 18 18 18 16 15 7 5 3 1 3 3
6 5 2 2 8 4 4 7 8 9 10 12 10 9 19 19 18 19 19 20 20 19 17 19 18 17 17 16 16 16 16 15 17 16 17 16 15 6 4 2 3 4 5 4
2 2 6 3 0 0 4 4 6 8 8 13 15 16 18 20 20 21 21 21 21 18 18 19 17 16 17 16 16 14 14 13 16 16 14 12 10 3 1 3 4 4 5 6
1 2 3 3 10 4 2 3 5 8 12 13 16 18 19 19 19 20 21 19 18 18 20 18 17 15 17 15 13 13 12 14 15 15 14 9 2 4 4 5 4 4 4 5
2 3 4 6 5 6 3 4 8 8 11 12 16 17 18 18 18 18 18 19 18 18 19 19 17 17 16 13 12 10 9 13 12 12 11 2 2 3 4 3 4 4 4 5
2 3 2 1 7 8 6 7 9 11 12 13 14 16 17 17 18 17 18 17 17 17 17 19 18 16 11 11 11 7 10 10 11 9 4 3 6 4 6 8 7 6 6 6
3 2 4 6 6 7 9 9 10 13 15 14 12 16 17 16 16 16 16 18 17 18 17 18 19 15 11 10 5 8 9 7 7 7 1 4 7 10 24 23 24 23 21 12
2 2 3 6 5 6 7 10 11 11 12 14 15 13 16 16 14 20 17 18 19 18 17 17 17 15 13 10 8 8 8 8 6 0 5 6 5 5 12 18 28 26 24 25
3 4 3 4 5 6 8 10 12 11 10 11 13 14 14 14 16 17 17 18 20 16 16 17 16 14 15 13 6 7 6 4 2 5 7 9 7 6 7 8 10 11 22 19
5 2 5 5 6 8 9 9 11 11 12 13 12 13 14 15 16 16 16 17 18 15 16 17 16 15 14 13 11 7 4 4 4 7 9 12 7 7 8 9 9 8 7 13
6 6 4 7 8 9 10 10 10 12 12 13 13 14 15 14 13 14 16 17 17 15 15 16 16 16 14 13 12 10 6 14 11 7 9 10 7 7 8 8 9 8 8 7
3 5 6 8 7 7 6 7 7 9 11 11 13 14 13 13 12 14 16 17 16 13 15 14 15 16 14 14 11 7 6 8 16 9 9 10 8 8 8 8 9 9 9 11
4 4 5 6 7 7 9 7 7 8 9 12 12 12 13 13 12 13 15 16 16 14 16 14 16 16 13 13 11 7 7 8 9 10 9 10 9 8 8 8 9 9 8 11
3 6 6 6 6 6 7 6 6 7 9 10 10 11 11 11 12 12 13 14 16 15 17 15 23 17 14 18 12 8 9 10 10 9 10 14 10 9 8 9 9 9 8 8
5 4 5 5 5 3 6 6 7 7 8 8 9 8 10 11 12 12 12 11 14 12 16 15 13 12 12 15 18 9 10 11 10 9 9 9 8 8 8 13 9 8 7 7
6 5 5 5 5 5 4 5 4 6 7 7 8 8 9 9 10 11 11 10 15 16 18 18 13 9 8 11 11 10 10 10 10 9 8 8 8 7 7 7 7 7 6 6
3 3 4 4 3 5 5 5 4 5 6 6 8 6 9 10 10 9 8 9 10 22 13 9 9 18 12 17 9 9 10 10 9 7 7 7 7 7 7 6 7 6 6 5
3 3 4 5 5 6 6 5 6 7 6 7 8 7 7 7 6 7 10 13 10 15 10 9 18 21 20 9 8 8 9 9 8 7 7 7 7 6 6 5 5 5 5 5
4 4 4 5 5 5 5 6 6 6 6 6 7 7 6 7 6 5 6 12 19 15 11 13 15 20 17 8 8 8 8 8 7 7 6 10 6 5 5 5 5 5 5 6
4 4 3 4 4 3 5 6 6 5 7 5 7 5 6 4 4 6 6 6 15 11 7 15 18 18 8 7 7 7 7 7 7 7 7 7 6 6 6 5 4 3 3 2
4 4 3 4 3 3 4 5 4 5 6 6 7 6 5 4 4 5 4 10 6 11 5 6 7 6 6 7 6 7 6 6 6 6 6 6 5 5 5 5 4 3 3 2
4 8 2 3 3 4 5 5 5 5 6 6 7 4 4 5 6 7 10 6 5 4 5 5 4 7 4 5 5 5 5 5 8 5 5 4 4 4 5 5 4 4 4 3
Wind_Direction
275 270 261 282 285 276 264 229 189 253 267 245 311 325 308 301 323 330 335 335 328 325 322 320 320 319 317 314 316 313 311 308 312 318 321 319 311 292 309 295 279 268 242 221
287 277 280 274 265 259 255 171 300 8 294 224 267 284 331 322 316 313 327 327 324 323 319 320 319 316 315 315 318 313 316 307 312 311 319 307 300 306 305 289 273 256 232 199
258 284 319 288 276 351 37 58 52 250 243 315 339 335 323 314 315 318 326 324 322 318 316 316 315 312 310 312 311 305 314 308 307 314 312 306 304 307 301 292 277 231 200 179
274 339 271 255 48 120 127 46 26 16 339 331 309 311 307 292 327 333 322 316 313 312 312 311 309 307 307 310 308 309 306 305 312 314 310 304 307 301 297 296 260 198 191 201
214 215 267 334 10 31 103 280 281 276 332 324 319 313 295 324 327 314 311 308 306 308 307 305 305 304 303 305 300 300 299 302 318 311 301 309 304 300 295 285 285 196 192 200
17 260 266 225 311 349 100 284 314 1 333 330 329 312 312 326 318 313 310 306 308 306 307 303 301 301 297 295 292 292 297 315 313 300 310 297 293 287 284 283 274 136 103 106
242 262 243 295 299 309 79 259 344 342 325 322 314 294 305 313 309 305 306 306 308 309 303 300 301 300 295 297 296 301 312 306 298 297 290 287 286 277 265 315 44 51 78 52
5 34 282 296 353 55 241 319 324 320 319 313 309 311 312 312 311 313 313 313 311 308 302 298 297 293 291 289 289 294 288 291 293 290 292 288 277 266 6 55 68 58 77 65
11 225 225 337 96 78 8 288 316 323 322 321 315 315 316 315 315 314 313 312 310 306 303 301 302 295 292 290 289 286 286 292 291 296 295 285 329 45 48 50 52 46 57 70
191 47 16 83 61 25 12 338 322 317 318 317 312 313 314 315 313 314 313 312 311 313 307 305 305 299 289 288 285 280 282 288 292 295 298 328 36 68 70 67 72 60 56 62
318 17 29 176 29 348 355 337 329 325 319 318 314 316 316 313 314 314 311 310 315 313 310 311 310 300 295 296 293 271 285 286 293 308 302 54 65 61 80 66 69 75 63 67
237 149 200 274 323 359 347 339 337 325 326 323 326 318 317 313 314 313 317 320 320 317 321 318 317 314 301 289 261 284 286 289 301 295 27 58 76 83 74 75 70 67 64 69
255 328 249 274 317 358 339 340 328 332 319 322 319 318 317 316 318 325 323 324 325 322 326 323 322 324 318 292 271 271 279 295 291 176 68 62 60 70 90 72 72 68 71 73
46 12 335 20 315 340 349 333 327 315 318 322 317 316 318 319 322 328 329 326 326 327 332 331 331 332 332 332 291 280 285 325 26 80 75 65 52 57 70 74 77 62 60 70
9 351 253 319 345 347 338 330 331 331 329 328 328 324 329 326 327 327 327 329 330 337 343 341 344 342 344 350 350 355 35 39 64 84 85 79 67 66 67 69 70 69 56 55
321 317 358 347 336 335 332 333 336 324 326 323 325 329 327 322 322 327 333 335 340 344 344 345 349 347 358 360 3 5 44 79 77 78 87 81 70 68 69 71 69 64 57 46
359 338 334 326 324 311 294 302 303 306 310 316 322 322 325 328 330 340 339 339 338 337 347 353 359 355 7 9 8 12 28 59 73 65 72 75 73 68 68 70 72 68 66 66
210 237 250 267 290 303 309 303 297 298 310 312 317 329 333 334 337 337 337 336 344 348 359 2 9 6 7 18 16 23 40 53 60 64 68 70 65 64 66 70 70 73 70 67
227 264 275 269 266 272 279 285 284 297 310 317 326 334 329 329 336 338 336 342 351 352 356 360 10 13 10 28 26 28 43 52 56 59 66 72 63 58 57 59 58 56 57 59
297 280 285 281 291 237 287 288 302 310 313 321 323 335 341 339 338 343 343 348 351 342 350 1 9 10 16 17 29 30 41 46 48 59 64 63 63 61 65 71 71 64 62 61
278 286 291 298 295 304 290 285 301 317 313 321 328 332 335 330 340 343 351 356 344 348 354 356 12 17 20 28 24 29 37 43 47 45 50 56 62 58 60 62 64 65 64 63
268 277 289 305 312 309 311 307 307 308 310 320 325 326 341 345 346 346 354 346 335 359 350 345 13 25 29 30 26 31 35 41 45 43 45 52 58 63 61 59 62 62 61 59
325 328 337 327 320 311 319 331 328 326 320 330 339 342 345 336 336 340 348 346 344 5 355 344 20 28 27 20 22 30 38 38 39 44 47 49 49 45 52 66 58 57 65 60
340 335 309 316 335 348 342 329 328 329 326 330 339 341 343 341 339 344 329 343 349 11 2 357 17 24 26 14 15 19 24 39 35 34 35 48 48 50 44 36 50 47 46 56
335 323 317 329 331 314 319 318 316 329 327 338 336 328 326 322 326 322 339 336 354 6 358 358 11 21 11 15 13 15 15 20 40 32 30 30 25 23 23 20 30 70 32 28
330 315 305 319 338 341 323 318 326 333 332 334 322 324 316 313 312 347 328 347 351 356 350 353 358 19 8 10 13 12 12 6 30 23 30 24 16 12 10 6 358 345 335 337
337 351 8 354 335 333 314 339 349 325 331 314 298 320 319 327 328 344 341 331 326 334 344 346 349 6 27 16 6 10 15 11 16 35 11 11 8 358 354 349 341 335 335 323